NZCH

Christchurch

Airport
ICAO code
NZCH
IATA Code
CHC
Summary
ICAO Region
APAC
ICAO Territory
Location

Harewood, Christchurch,

Serving
Christchurch
Elevation
123 ft
Coordinates
43° 29' 21" S , 172° 32' 2" E
KCC
Metar
NZCH 140630Z AUTO 24008KT 5000 -RA BR OVC005/// 07/07 Q0997

Description

Christchurch International Airport is the main airport that serves Christchurch, New Zealand. It is located 12 km to the northwest of the city centre, in the suburb of Harewood.

Climatology

Temperate Marine climate/Oceanic climate (Köppen climate classification Cfb). Moderately cool summer and comparatively warm winter with a temperature range of only 14°C.

Runways

Designator Length Width Surface Rops
1/19 515 70 GRS No/No
11/29 1703 45 Bitumen Yes/Yes
2/20 3288 45 ASP Yes/Yes

SKYbrary Partners:

Safety knowledge contributed by: